sat.trackr.live / text

‹ back to catalog

STARLINK-35852

NORAD 66889 · 2025-283M

PAYLOAD ACTIVE UNKNOWN

§ Identity

Operator
Country
US
Launch date
2025-12-04
Launch site
AFWTR
Launch vehicle
Mass (kg)
RCS (m²)

Purposes: comms

External: N2YO · Heavens-Above · Gunter

§ Orbital elements

Epoch: 2026-05-24T22:57:06.398784Z

Period
93.85 min
Inclination
53.1605°
Eccentricity
0.0001146
Mean motion
15.34392350 rev/d
Perigee alt
461.9 km
Apogee alt
463.5 km
Semi-major
6,840.9 km
B*
7.7098e-4
RAAN
29.7232°
Arg perigee
84.0899°
Mean anomaly
276.0234°
Rev number
2,752

§ Raw data

STARLINK-358521 66889U 25283M   26144.95632406  .00025756  00000+0  77098-3 0  99972 66889  53.1605  29.7232 0001146  84.0899 276.0234 15.34392350 27529

JSON: /api/v1/satellites/66889 · /tle

For live sub-satellite position, see the globe view (requires WebGL).

§ Visibility from observer

Set your observer location to see the next 7 days of passes ≥ 10°. The values pass through the URL so the page stays shareable.

No JS? Fill the form by hand. The geolocation button needs JavaScript.